User: anonymous   Login
Location: Unspecified
(0.0000°N, 0.0000°E)
Time: 19:16:23
(UTC+00:00)
Language:

S-NET B - Orbit

View from above orbital plane
View from above orbital plane
View from above satellite
View from above satellite

Ground track
Ground track

The orbit data is extracted from the following two-line orbital elements,

1 43187U 18014H   19174.97388323  .00000233  00000-0  25543-4 0  9993
2 43187  97.7098  83.3402 0010989 357.5066   2.6099 14.96648672 75926
Epoch (UTC): 23 June 2019 23:22:23
Eccentricity: 0.0010989
inclination: 97.7098°
perigee height: 569 km
apogee height: 585 km
right ascension of ascending node: 83.3402°
argument of perigee: 357.5066°
revolutions per day: 14.96648672
mean anomaly at epoch: 2.6099°
orbit number at epoch: 7592

The dashed part of the orbit path shows where the satellite is in the earth's shadow,  

DLR